Location: Pabrico
(37.5827°N, 122.0063°W)
Time: 10:53:27
(UTC+00:00)

KORONAS-FOTON - Pass Details

Date: 13 April 2024
Orbit: 478 x 498 km, 82.4° (Epoch: 23 May)

Event Time Altitude Azimuth Distance (km) Brightness Sun altitude
Rises 12:53:07 0° 188° (S) 2,553 7.1 -8.8°
Reaches altitude 10° 12:55:13 10° 190° (S) 1,672 6.1 -8.4°
Maximum altitude 12:58:53 80° 276° (W) 499 3.6 -7.7°
Drops below altitude 10° 13:02:32 10° 5° (N) 1,672 6.7 -7.0°
Sets 13:04:39 0° 6° (N) 2,553 7.7 -6.6°
